Main page
METAR-TAF:

METAR-TAF

Airports :

Mossoró Airport

Mossoró, Rio Grande do Norte, Brazil

latitude: 05-12S, longitude: 037-22W, elevation: 23 m

Current weather observation

The report was made 17 hours and 17 minutes ago, at 17:00 UTC
Wind 15 kt from the Northeast
Temperature 36°C
Humidity 45%
Pressure 1007 hPa
Visibility 10 km or more
Few clouds at a height of 3000 ft

METAR: SBMS 131700Z 05015KT 9999 FEW030 36/22 Q1007

Time: 07:17 (10:17 UTC)


TAF: missing

Weather observations and forecasts of more than 4000 airports (METAR and TAF reports).

The available stations are represented by yellow and red dots on the map.

Hover mouse over dot to see the name of the station.

Then click to see weather observations and forecasts.

To change the map : click on the green buttons with a black cross to zoom in, on the green button with a dash to zoom out, or on the green arrows for adjacent maps.


METAR-TAF: